Weather in San Jose

Philippines     10°00′26″N   125°35′57″E
temp.,
°C
wind,
m/s
gust,
m/s
humid.,
%
clouds,
%
prec.,
mm/h
press.,
hPa
HPBL,
m
27 november, sat
sat2723:00+27ene4783100 0.6 1010372
02:00+27ene477971 0.9 1008504
05:00+28ene367788 0.0 1009463
08:00+28e5679100 0.9 1011682
11:00+28e5678100 0.7 1009725
14:00+29e567694 1.1 1007808
17:00+28e5777100 2.0 1008697
20:00+28ese698099 2.5 1010702
28 november, sun
sun2823:00+27e4781100 0.1 1009459
02:00+27e4783100 0.3 1008529
05:00+27e5784100 1.3 1009612
08:00+27e5881100 2.1 1011734
11:00+28e578099 1.1 1010781
14:00+28e578059 2.0 1008788
17:00+27ene588169 1.4 1008693
20:00+27e5883100 3.2 1010652
29 november, mon
mon2923:00+27e478247 1.6 1010551
02:00+27e47809 3.4 1008440
05:00+27e578080 2.1 1008518
08:00+28e5774100 3.4 1010886
11:00+28e5776100 1.1 1009845
14:00+28e5777100 1.6 1006840
17:00+28ene4679100 0.3 1007650
20:00+27ene3682100 1.1 1009420
30 november, tue
tue3023:00+27ne2481100 0.1 1009250
02:00+27ne228198 0.3 1007208
05:00+27e2479100 0.9 1008232
08:00+27ne237692 1.1 1010348
11:00+28e3374100 0.4 1009570
14:00+29n136897 0.5 1006604
17:00+28ene2376100 0.1 1007544
20:00+28ne2380100 0.1 1009326
1 december, wed
wed123:00+27ne228163 0.0 1009223
02:00+27n118124 0.1 1007226
05:00+27n228211 0.0 1008369
08:00+27n2379100 0.0 1010468
11:00+28wnw4377100 0.3 1009378
14:00+28nnw1176100 3.6 1007143
17:00+28ene1174100 1.1 1008371
20:00+28ene1276100 1.2 1010337